User: anonymous   Login
Location: Caltech
(34.1382°N, 118.1253°W)
Time: 02:03:51
(UTC-07:00)
Language:

Gurwin Techsat 1B - Orbit

View from above orbital plane
View from above orbital plane
View from above satellite
View from above satellite

Ground track
Ground track

The orbit data is extracted from the following two-line orbital elements,

1 25397U 98043D   16242.09592281 -.00000017  00000-0  11262-4 0  9996
2 25397  98.5717 185.1637 0002286 109.1144 251.0282 14.23600863942237
Epoch (UTC): 29 August 2016 02:18:07
Eccentricity: 0.0002286
inclination: 98.5717°
perigee height: 811 km
apogee height: 815 km
right ascension of ascending node: 185.1637°
argument of perigee: 109.1144°
revolutions per day: 14.23600863
mean anomaly at epoch: 251.0282°
orbit number at epoch: 94223

The dashed part of the orbit path shows where the satellite is in the earth's shadow,  

DLR